STARLINK-3085, 49156

Orbit data source: Space-Track

STARLINK-3085, 49156 is a payload satellite owned by SpaceX/Seattle (US) in LEO that was launched on Tue, 14 Sep 2021 UTC via an FALCON 9 launch vehicle from the Air Force Western Test Range (AFWTR). Payload-class satellites include a variety of spacecraft equipped with specific instruments for various scientific and technological missions. These include communications satellites like Starlink; space stations such as the ISS; scientific satellites like the Hubble; Earth observation satellites from companies like Planet Labs, Umbra, and HawkEye 360; GPS; miniature CubeSats for education and research; and military/defense satellites.

Loading next visibility...
Identifier
49156, 2021-082AC
Orbit
LEO
Country
Flag of USUS
Related business
Manufacturer
SpaceX/Seattle
Mission
Operational Commercial Communications
Bus & Motor
STARLINK, Unknown motor
Mass
297 kg wet, ~275 kg dry
Launch date (UTC)
2021-09-14 (5 years ago)
Launch vehicle
FALCON 9
Launch site
Air Force Western Test Range (AFWTR)
Object type
Payload
Rocket body
Debris
Shape & HBR
Box + 1 Pan, 10.1 m
Radar Cross Section
13.562 m², Large (>1 m²)

Expand to show TLE details & history
Last TLE update: 15 hours ago

TLE from 15 hours ago
0 STARLINK-3085
1 49156U 21082AC  26125.35515689 -.00000253  00000-0 -13380-4 0  9997
2 49156  69.9991 111.5741 0003198 278.0160  82.0636 14.98332274256534
Epoch: 2026-05-05T08:31Z
TLE epoch observation values (Epoch: 2026-05-05T08:31:25.555Z)
Latitude
-0.00002°
Longitude
120.48642°
Altitude
574.166 km
Speed
7.574 km/s
True Right ascension
07h 26m 17s
True Declination
0° 00' 00"
Sunlit
Object was in daylight at epoch
Visualization orbit readout
Latitude
Unknown
Longitude
Unknown
Altitude
Unknown
Speed
Unknown
Apparent Right ascension
Unknown
Apparent Declination
Unknown
Sunlit
N/A
Visualization observer readout
Local Sidereal Time
07:14:29
Azimuth
Unknown
Elevation
Unknown
Doppler factor
Unknown
Orbital elements
Apogee altitude
572.219 km
Perigee altitude
567.775 km
Semi-major axis
6,948.134 km
Eccentricity
0.00032
Inclination
69.9991°
RAAN
111.5741°
Arg. of periapsis
278.016°
True anomaly
82.0999°
Mean anomaly
82.0636°
Eccentric anomaly
82.08175°
Mean motion
3.74749 °/min
Orbital period
96.06 mins
BSTAR
-0.00001338
Loading maneuver chart data...
Computing Atmospheric mass density...
Loading historical data...
Loading historical data...
Loading historical data...
Loading historical data...
Loading historical data...
Loading historical data...
Loading historical data...

Documentation

Showing up to 5 results
|